Time,TemperatureF,DewpointF,PressureIn,WindDirection,WindDirectionDegrees,WindSpeedMPH,WindSpeedGustMPH,Humidity,HourlyPrecipIn,Conditions,Clouds,dailyrainin,SoftwareType,DateUTC
2013-09-09 00:04:00,57.2,56.0,29.77,South,184,2.0,9.0,95,0.00,,,0.00,weatherlink.com 1.10,2013-09-09 07:04:00,
2013-09-09 00:19:00,57.2,56.0,29.77,SSW,200,3.0,9.0,95,0.00,,,0.00,weatherlink.com 1.10,2013-09-09 07:19:00,
2013-09-09 00:34:00,57.0,56.0,29.78,South,180,3.0,7.0,95,0.00,,,0.00,weatherlink.com 1.10,2013-09-09 07:34:00,
2013-09-09 00:49:00,56.8,55.0,29.78,South,179,2.0,6.0,95,0.00,,,0.00,weatherlink.com 1.10,2013-09-09 07:49:00,
2013-09-09 01:04:00,56.7,55.0,29.77,SE,145,2.0,8.0,95,0.00,,,0.00,weatherlink.com 1.10,2013-09-09 08:04:00,
2013-09-09 01:19:00,56.7,55.0,29.77,SSE,152,3.0,6.0,95,0.00,,,0.00,weatherlink.com 1.10,2013-09-09 08:19:00,
2013-09-09 01:34:00,56.6,55.0,29.77,SW,235,5.0,6.0,95,0.00,,,0.00,weatherlink.com 1.10,2013-09-09 08:34:00,
2013-09-09 01:49:00,56.6,55.0,29.77,SW,225,2.0,8.0,95,0.00,,,0.00,weatherlink.com 1.10,2013-09-09 08:49:00,
2013-09-09 02:04:00,56.6,55.0,29.77,SE,145,2.0,9.0,95,0.00,,,0.00,weatherlink.com 1.10,2013-09-09 09:04:00,
2013-09-09 02:19:00,56.6,56.0,29.77,SE,146,4.0,8.0,96,0.00,,,0.00,weatherlink.com 1.10,2013-09-09 09:19:00,
2013-09-09 02:34:00,56.4,55.0,29.77,SW,226,3.0,10.0,95,0.00,,,0.00,weatherlink.com 1.10,2013-09-09 09:34:00,
2013-09-09 02:49:00,56.3,55.0,29.77,SSW,207,6.0,8.0,96,0.00,,,0.00,weatherlink.com 1.10,2013-09-09 09:49:00,
2013-09-09 03:05:00,56.2,55.0,29.76,SSW,206,4.0,10.0,96,0.00,,,0.00,weatherlink.com 1.10,2013-09-09 10:05:00,
2013-09-09 03:20:00,55.8,55.0,29.76,WSW,252,4.0,9.0,96,0.00,,,0.00,weatherlink.com 1.10,2013-09-09 10:20:00,
2013-09-09 03:35:00,55.6,55.0,29.76,SSE,156,8.0,8.0,96,0.00,,,0.00,weatherlink.com 1.10,2013-09-09 10:35:00,
2013-09-09 03:50:00,55.5,54.0,29.76,SW,218,3.0,9.0,96,0.00,,,0.00,weatherlink.com 1.10,2013-09-09 10:50:00,
2013-09-09 04:05:00,55.3,54.0,29.76,SW,215,7.0,10.0,96,0.00,,,0.00,weatherlink.com 1.10,2013-09-09 11:05:00,
2013-09-09 04:20:00,55.2,54.0,29.76,SE,145,7.0,9.0,96,0.00,,,0.00,weatherlink.com 1.10,2013-09-09 11:20:00,
2013-09-09 04:35:00,55.1,54.0,29.76,SSE,165,7.0,9.0,96,0.00,,,0.00,weatherlink.com 1.10,2013-09-09 11:35:00,
2013-09-09 04:50:00,55.0,54.0,29.76,WSW,250,6.0,8.0,96,0.00,,,0.00,weatherlink.com 1.10,2013-09-09 11:50:00,
2013-09-09 05:05:00,54.8,54.0,29.77,SSW,201,5.0,10.0,96,0.00,,,0.00,weatherlink.com 1.10,2013-09-09 12:05:00,
2013-09-09 05:20:00,54.9,54.0,29.77,SSE,156,5.0,9.0,96,0.00,,,0.00,weatherlink.com 1.10,2013-09-09 12:20:00,
2013-09-09 05:35:00,54.6,54.0,29.77,South,189,3.0,11.0,96,0.00,,,0.00,weatherlink.com 1.10,2013-09-09 12:35:00,
2013-09-09 05:50:00,54.8,54.0,29.77,SW,229,4.0,7.0,96,0.00,,,0.00,weatherlink.com 1.10,2013-09-09 12:50:00,
2013-09-09 06:05:00,54.8,54.0,29.77,South,177,2.0,7.0,96,0.00,,,0.00,weatherlink.com 1.10,2013-09-09 13:05:00,
2013-09-09 06:20:00,54.8,54.0,29.77,SSE,162,3.0,8.0,97,0.00,,,0.00,weatherlink.com 1.10,2013-09-09 13:20:00,
2013-09-09 06:35:00,54.9,54.0,29.78,SW,215,5.0,8.0,97,0.00,,,0.00,weatherlink.com 1.10,2013-09-09 13:35:00,
2013-09-09 06:50:00,55.0,54.0,29.79,WSW,245,6.0,7.0,97,0.00,,,0.00,weatherlink.com 1.10,2013-09-09 13:50:00,
2013-09-09 07:05:00,55.1,54.0,29.79,SSW,200,2.0,7.0,97,0.00,,,0.00,weatherlink.com 1.10,2013-09-09 14:05:00,
2013-09-09 07:20:00,55.1,54.0,29.79,West,262,2.0,7.0,97,0.00,,,0.00,weatherlink.com 1.10,2013-09-09 14:20:00,
2013-09-09 07:35:00,55.2,54.0,29.79,SE,136,6.0,8.0,97,0.00,,,0.00,weatherlink.com 1.10,2013-09-09 14:35:00,
2013-09-09 07:50:00,55.3,55.0,29.80,SSE,158,3.0,6.0,97,0.00,,,0.00,weatherlink.com 1.10,2013-09-09 14:50:00,
2013-09-09 08:05:00,55.6,55.0,29.79,SE,135,2.0,6.0,97,0.00,,,0.00,weatherlink.com 1.10,2013-09-09 15:05:00,
2013-09-09 08:20:00,56.0,55.0,29.80,South,181,1.0,8.0,97,0.00,,,0.00,weatherlink.com 1.10,2013-09-09 15:20:00,
2013-09-09 08:35:00,56.7,56.0,29.80,SSW,203,2.0,6.0,97,0.00,,,0.00,weatherlink.com 1.10,2013-09-09 15:35:00,
2013-09-09 08:50:00,57.5,56.0,29.80,SSE,152,5.0,9.0,96,0.00,,,0.00,weatherlink.com 1.10,2013-09-09 15:50:00,
2013-09-09 09:05:00,58.6,57.0,29.79,SE,145,1.0,7.0,95,0.00,,,0.00,weatherlink.com 1.10,2013-09-09 16:05:00,
2013-09-09 09:20:00,59.4,58.0,29.79,SW,218,6.0,8.0,94,0.00,,,0.00,weatherlink.com 1.10,2013-09-09 16:20:00,
2013-09-09 09:35:00,60.4,58.0,29.79,SW,217,4.0,6.0,91,0.00,,,0.00,weatherlink.com 1.10,2013-09-09 16:35:00,
2013-09-09 09:50:00,62.4,59.0,29.79,SE,140,3.0,6.0,87,0.00,,,0.00,weatherlink.com 1.10,2013-09-09 16:50:00,
2013-09-09 10:05:00,63.6,59.0,29.79,SSW,208,5.0,7.0,84,0.00,,,0.00,weatherlink.com 1.10,2013-09-09 17:05:00,
2013-09-09 10:20:00,63.7,59.0,29.79,SSW,201,2.0,6.0,84,0.00,,,0.00,weatherlink.com 1.10,2013-09-09 17:20:00,
2013-09-09 10:36:00,64.7,59.0,29.79,SE,139,5.0,7.0,82,0.00,,,0.00,weatherlink.com 1.10,2013-09-09 17:36:00,
2013-09-09 10:51:00,65.9,60.0,29.79,SW,232,4.0,8.0,80,0.00,,,0.00,weatherlink.com 1.10,2013-09-09 17:51:00,
2013-09-09 11:06:00,66.7,60.0,29.78,SSW,204,3.0,7.0,79,0.00,,,0.00,weatherlink.com 1.10,2013-09-09 18:06:00,
2013-09-09 11:21:00,67.5,61.0,29.78,SW,232,6.0,8.0,79,0.00,,,0.00,weatherlink.com 1.10,2013-09-09 18:21:00,
2013-09-09 11:36:00,68.7,61.0,29.78,SW,217,3.0,8.0,76,0.00,,,0.00,weatherlink.com 1.10,2013-09-09 18:36:00,
2013-09-09 11:51:00,68.7,61.0,29.78,SW,225,6.0,9.0,76,0.00,,,0.00,weatherlink.com 1.10,2013-09-09 18:51:00,
2013-09-09 12:06:00,69.3,61.0,29.77,South,184,3.0,9.0,74,0.00,,,0.00,weatherlink.com 1.10,2013-09-09 19:06:00,
2013-09-09 12:21:00,69.1,60.0,29.77,South,187,8.0,10.0,73,0.00,,,0.00,weatherlink.com 1.10,2013-09-09 19:21:00,
2013-09-09 12:36:00,68.6,60.0,29.77,SE,141,5.0,11.0,74,0.00,,,0.00,weatherlink.com 1.10,2013-09-09 19:36:00,
2013-09-09 12:51:00,68.6,60.0,29.76,West,263,2.0,12.0,73,0.00,,,0.00,weatherlink.com 1.10,2013-09-09 19:51:00,
2013-09-09 13:06:00,68.1,59.0,29.76,SSE,162,6.0,12.0,73,0.00,,,0.00,weatherlink.com 1.10,2013-09-09 20:06:00,
2013-09-09 13:21:00,68.8,59.0,29.75,SSW,205,9.0,14.0,72,0.00,,,0.00,weatherlink.com 1.10,2013-09-09 20:21:00,
2013-09-09 13:36:00,68.3,59.0,29.75,South,173,6.0,13.0,72,0.00,,,0.00,weatherlink.com 1.10,2013-09-09 20:36:00,
2013-09-09 13:51:00,67.1,59.0,29.75,SSW,205,8.0,15.0,75,0.00,,,0.00,weatherlink.com 1.10,2013-09-09 20:51:00,
2013-09-09 14:06:00,66.4,58.0,29.74,SE,145,12.0,15.0,74,0.00,,,0.00,weatherlink.com 1.10,2013-09-09 21:06:00,
2013-09-09 14:21:00,67.1,58.0,29.74,SW,219,4.0,18.0,73,0.00,,,0.00,weatherlink.com 1.10,2013-09-09 21:21:00,
2013-09-09 14:51:00,67.6,59.0,29.73,South,184,9.0,14.0,74,0.00,,,0.00,weatherlink.com 1.10,2013-09-09 21:51:00,
2013-09-09 15:06:00,67.3,59.0,29.72,SE,124,5.0,21.0,74,0.00,,,0.00,weatherlink.com 1.10,2013-09-09 22:06:00,
2013-09-09 15:21:00,66.6,59.0,29.72,SSW,211,13.0,20.0,76,0.00,,,0.00,weatherlink.com 1.10,2013-09-09 22:21:00,
2013-09-09 15:36:00,64.1,58.0,29.71,SE,145,13.0,22.0,80,0.00,,,0.00,weatherlink.com 1.10,2013-09-09 22:36:00,
2013-09-09 15:51:00,63.8,58.0,29.71,SSW,195,13.0,23.0,82,0.00,,,0.00,weatherlink.com 1.10,2013-09-09 22:51:00,
2013-09-09 16:06:00,64.2,59.0,29.71,SE,142,10.0,22.0,83,0.00,,,0.00,weatherlink.com 1.10,2013-09-09 23:06:00,
2013-09-09 16:21:00,64.4,59.0,29.71,SSE,167,9.0,18.0,82,0.00,,,0.00,weatherlink.com 1.10,2013-09-09 23:21:00,
2013-09-09 16:36:00,64.8,59.0,29.70,SSE,159,10.0,21.0,82,0.00,,,0.00,weatherlink.com 1.10,2013-09-09 23:36:00,
2013-09-09 16:51:00,64.4,59.0,29.70,SE,131,12.0,19.0,82,0.00,,,0.00,weatherlink.com 1.10,2013-09-09 23:51:00,
2013-09-09 17:06:00,63.9,59.0,29.70,ESE,122,8.0,20.0,83,0.00,,,0.00,weatherlink.com 1.10,2013-09-10 00:06:00,
2013-09-09 17:21:00,63.4,59.0,29.70,ESE,120,17.0,22.0,84,0.00,,,0.00,weatherlink.com 1.10,2013-09-10 00:21:00,
2013-09-09 17:36:00,63.6,59.0,29.70,South,181,11.0,22.0,86,0.00,,,0.00,weatherlink.com 1.10,2013-09-10 00:36:00,
2013-09-09 17:51:00,63.4,59.0,29.70,SSE,167,5.0,20.0,86,0.00,,,0.00,weatherlink.com 1.10,2013-09-10 00:51:00,
2013-09-09 18:06:00,63.2,59.0,29.70,SE,130,8.0,19.0,87,0.00,,,0.00,weatherlink.com 1.10,2013-09-10 01:06:00,
2013-09-09 18:21:00,62.3,59.0,29.69,WSW,249,14.0,18.0,88,0.00,,,0.00,weatherlink.com 1.10,2013-09-10 01:21:00,
2013-09-09 18:36:00,61.5,59.0,29.70,SW,228,7.0,14.0,90,0.00,,,0.00,weatherlink.com 1.10,2013-09-10 01:36:00,
2013-09-09 18:51:00,60.9,58.0,29.69,SSE,150,13.0,18.0,91,0.00,,,0.00,weatherlink.com 1.10,2013-09-10 01:51:00,
2013-09-09 19:06:00,60.3,58.0,29.69,SSE,165,7.0,19.0,93,0.00,,,0.00,weatherlink.com 1.10,2013-09-10 02:06:00,
2013-09-09 19:21:00,60.1,58.0,29.69,SSE,158,8.0,14.0,94,0.00,,,0.00,weatherlink.com 1.10,2013-09-10 02:21:00,
2013-09-09 19:36:00,59.9,58.0,29.69,SE,143,8.0,16.0,94,0.00,,,0.00,weatherlink.com 1.10,2013-09-10 02:36:00,
2013-09-09 19:51:00,59.8,58.0,29.70,SSE,152,7.0,15.0,94,0.00,,,0.00,weatherlink.com 1.10,2013-09-10 02:51:00,
2013-09-09 20:06:00,59.7,58.0,29.70,South,181,5.0,15.0,95,0.00,,,0.00,weatherlink.com 1.10,2013-09-10 03:06:00,
2013-09-09 20:21:00,59.6,58.0,29.70,South,171,8.0,17.0,95,0.00,,,0.00,weatherlink.com 1.10,2013-09-10 03:21:00,
2013-09-09 20:36:00,59.4,58.0,29.71,SW,228,10.0,15.0,95,0.00,,,0.00,weatherlink.com 1.10,2013-09-10 03:36:00,
2013-09-09 20:51:00,59.2,58.0,29.71,SSE,149,9.0,18.0,95,0.00,,,0.00,weatherlink.com 1.10,2013-09-10 03:51:00,
2013-09-09 21:06:00,59.1,58.0,29.72,South,180,9.0,14.0,96,0.00,,,0.00,weatherlink.com 1.10,2013-09-10 04:06:00,
2013-09-09 21:21:00,59.0,58.0,29.72,SSE,162,6.0,18.0,96,0.00,,,0.00,weatherlink.com 1.10,2013-09-10 04:21:00,
2013-09-09 21:36:00,58.9,58.0,29.72,South,173,9.0,14.0,96,0.00,,,0.00,weatherlink.com 1.10,2013-09-10 04:36:00,
2013-09-09 21:52:00,58.6,58.0,29.72,WSW,238,7.0,14.0,96,0.00,,,0.00,weatherlink.com 1.10,2013-09-10 04:52:00,
2013-09-09 22:07:00,59.0,58.0,29.72,South,180,3.0,12.0,97,0.00,,,0.00,weatherlink.com 1.10,2013-09-10 05:07:00,
2013-09-09 22:22:00,58.9,58.0,29.72,SSE,159,5.0,11.0,97,0.00,,,0.00,weatherlink.com 1.10,2013-09-10 05:22:00,
2013-09-09 22:37:00,58.9,58.0,29.72,South,184,8.0,12.0,96,0.00,,,0.00,weatherlink.com 1.10,2013-09-10 05:37:00,
2013-09-09 22:52:00,58.7,58.0,29.72,SSE,162,8.0,15.0,97,0.00,,,0.00,weatherlink.com 1.10,2013-09-10 05:52:00,
2013-09-09 23:07:00,58.6,58.0,29.72,SSW,195,6.0,13.0,97,0.00,,,0.00,weatherlink.com 1.10,2013-09-10 06:07:00,
2013-09-09 23:22:00,58.8,58.0,29.72,ESE,105,8.0,13.0,97,0.00,,,0.00,weatherlink.com 1.10,2013-09-10 06:22:00,
2013-09-09 23:37:00,58.7,58.0,29.72,SSW,207,6.0,12.0,96,0.00,,,0.00,weatherlink.com 1.10,2013-09-10 06:37:00,
2013-09-09 23:52:00,58.7,58.0,29.72,WSW,239,9.0,10.0,97,0.00,,,0.00,weatherlink.com 1.10,2013-09-10 06:52:00,